SCP
0 0 0 0 0 0 0 0 0 0 0 0 0 0 0 0 0 0 0 0 0 0 0 0 0 0 0 0 0 0 0 0 0 0 0 0 0 0 0 0 0 0 0
0 0 0 0 0 0 0 0 0 0 0 0 0 0 0 0 0 0 0 0 0 0 0 0 0 0 0 0 0 0 0 0 0 0 0 0 0 0 0 0 0 0 0
0 0 0 0 0 0 0 0 0 0 0 0 0 0 0 0 0 0 0 0 0 0 0 0 0 0 0 0 0 0 0 0 0 0 0 0 0 0 0 0 0 0 0
0 0 0 0 0 0 0 0 0 0 0 0 0 0 0 0 0 0 0 0 0 0 0 0 0 0 0 0 0 0 0 0 0 0 0 0 0 0 0 0 0 0 0
0 0 0 0 0 0 0 0 0 0 0 0 0 0 0 0 0 0 0 0 0 0 0 0 0 0 0 0 0 0 0 0 0 0 0 0 0 0 0 0 0 0 0
0 0 0 0 0 0 0 0 0 0 0 0 0 0 0 0 0 0 0 0 0 0 0 0 0 0 0 0 0 0 0 0 0 0 0 0 0 0 0 0 0 0 0
0 0 0 0 0 0 0 0 0 0 0 0 0 0 0 0 0 0 0 0 0 0 0 0 0 0 0 0 0 0 0 0 0 0 0 0 0 0 0 0 0 0 0
0 0 0 0 0 0 0 0 0 0 0 0 0 0 0 0 0 0 0 0 0 0 0 0 0 0 0 0 0 0 0 -0 0 0 0 0 0 0 0 0 0 0 0
0 0 0 0 0 0 0 0 0 0 0 0 0 0 0 0 0 0 0 0 0 0 0 0 0 0 0 0 0 0 0 -0 -0 0 0 0 0 0 0 0 0 0 0
0 0 0 0 0 0 0 0 0 0 0 0 0 0 0 0 0 0 0 0 0 0 0 0 0 0 0 0 0 0 0 0 0 -0 -0 0 0 -0 -0 0 0 0 0
0 0 0 0 0 0 0 0 0 0 0 0 0 0 0 0 0 0 0 0 0 0 0 0 0 0 0 0 0 0 0 0 0 0 -0 0 0 0 -0 -0 0 0 0
0 0 0 0 0 0 0 0 0 0 0 0 0 0 0 0 0 0 0 0 0 0 0 0 0 0 0 0 0 0 0 0 0 0 -0 -0 0 -0 -0 -0 0 0 0
0 0 0 0 0 0 0 0 0 0 0 0 0 0 0 0 0 0 0 0 0 0 0 0 0 0 0 0 0 0 0 0 0 0 0 -0 -0 -0 -0 -0 -0 0 0
0 0 0 0 0 0 0 0 0 0 0 0 0 0 0 0 0 0 0 0 0 0 0 0 0 0 0 0 0 0 0 0 0 0 0 0 -0 -0 0 0 0 -0 0
0 0 0 0 0 0 0 0 0 0 0 0 0 0 0 0 0 0 0 0 0 0 0 0 0 0 0 0 0 0 0 0 0 0 0 0 0 0 0 0 0 0 0
0 0 0 0 0 0 0 0 0 0 0 0 0 0 0 0 0 0 0 0 0 0 0 0 0 0 0 0 0 0 0 0 0 0 0 0 0 0 0 0 0 0 0
0 0 0 0 0 0 0 0 0 0 0 0 0 0 0 0 0 0 0 0 0 0 0 0 0 0 0 0 0 0 0 0 0 0 0 0 0 0 0 0 0 0 0
0 0 0 0 0 0 0 0 0 0 0 0 0 0 0 0 0 0 0 0 0 0 0 0 0 0 0 0 0 0 0 0 0 0 0 0 0 0 0 0 0 0 0
0 0 0 0 0 0 0 0 0 0 0 0 0 0 0 0 0 0 0 0 0 0 0 0 0 0 0 0 0 0 0 0 0 0 0 0 0 0 0 0 0 0 0
0 0 0 0 0 0 0 0 0 0 0 0 0 0 0 0 0 0 0 0 0 0 0 0 0 0 0 0 0 0 0 0 0 0 0 0 0 0 0 0 0 0 0
0 0 0 0 0 0 0 0 0 0 0 0 0 0 0 0 0 0 0 0 0 0 0 0 0 0 0 0 0 0 0 0 0 0 0 0 0 0 0 0 0 0 0
0 0 0 0 0 0 0 0 0 0 0 0 0 0 0 0 0 0 0 0 0 0 0 0 0 0 0 0 0 0 0 0 0 0 0 0 0 0 0 0 0 0 0
0 0 0 0 0 0 0 0 0 0 0 0 0 0 0 0 0 0 0 0 0 0 0 0 0 0 0 0 0 0 0 0 0 0 0 0 0 0 0 0 0 0 0
0 0 0 0 0 0 0 0 0 0 0 0 0 0 0 0 0 0 0 0 0 0 0 0 0 0 0 0 0 0 0 0 0 0 0 0 0 0 0 0 0 0 0
0 0 0 0 0 0 0 0 0 0 0 0 0 0 0 0 0 0 0 0 0 0 0 0 0 0 0 0 0 0 0 0 0 0 0 0 0 0 0 0 0 0 0
0 0 0 0 0 0 0 0 0 0 0 0 0 0 0 0 0 0 0 0 0 0 0 0 0 0 0 0 0 0 0 0 0 0 0 0 0 0 0 0 0 0 0
Wind_Speed_500mb
29 26 23 19 18 18 18 17 17 15 15 14 12 10 8 7 8 10 12 13 16 18 20 21 23 26 27 30 30 32 34 39 43 42 46 48 53 54 63 68 73 80 82
28 27 25 23 20 19 18 18 17 18 18 17 15 12 10 8 6 7 8 10 14 15 15 19 20 22 23 27 28 31 35 39 41 42 45 49 52 52 63 67 75 81 84
32 30 29 25 22 19 18 18 19 20 20 19 17 15 13 11 9 6 6 4 12 11 14 15 19 19 20 24 26 28 34 36 38 40 43 48 55 57 56 65 73 79 86
35 32 29 25 23 22 21 20 21 22 21 20 19 18 16 14 12 9 7 4 9 8 12 12 17 15 16 21 23 25 30 28 35 37 41 47 51 55 60 62 65 75 80
36 34 29 27 27 26 25 23 24 23 23 23 22 21 18 16 14 11 8 7 5 4 8 10 11 13 13 16 20 23 23 23 30 34 39 43 48 53 61 61 62 57 70
36 34 31 31 30 29 28 27 25 25 25 25 24 23 21 20 19 16 13 11 7 6 6 6 8 8 10 10 15 18 20 21 25 31 38 41 45 50 48 54 58 66 66
30 31 33 32 32 31 31 30 28 27 27 28 27 26 25 24 22 20 19 15 11 11 8 7 5 5 6 7 9 14 14 18 22 27 33 38 44 48 48 45 48 53 57
22 26 30 33 33 33 34 33 32 32 30 29 29 28 29 28 26 25 25 21 17 16 16 11 10 8 5 4 3 8 8 12 17 21 28 33 40 43 46 46 41 44 51
18 19 21 26 30 34 36 34 34 34 33 32 31 31 31 31 30 30 31 27 25 22 21 17 16 14 11 7 5 3 3 3 9 14 22 27 31 32 33 30 37 37 45
14 14 18 21 25 31 33 34 34 35 34 34 35 34 33 35 34 34 34 32 31 28 24 24 23 20 18 14 11 9 6 4 1 6 13 18 22 27 31 34 35 38 40
15 14 14 16 19 23 29 35 36 37 37 39 39 38 39 38 39 38 40 39 35 34 30 27 29 26 24 21 19 16 14 11 9 4 6 11 17 22 23 26 29 31 34
8 7 7 9 12 18 24 30 37 40 42 43 44 44 45 43 43 43 45 42 42 42 37 30 34 32 31 29 26 23 23 20 17 13 10 8 11 14 16 16 18 22 25
9 6 3 3 6 11 17 22 31 38 45 47 50 51 49 48 47 46 46 47 49 50 43 37 40 41 39 39 35 33 31 29 25 22 17 14 10 12 12 15 11 14 17
7 5 2 3 6 11 14 18 24 29 36 44 51 54 54 53 51 51 51 49 55 58 50 50 47 50 48 47 46 44 39 37 34 30 27 23 19 16 16 15 16 14 14
12 15 15 15 16 17 20 22 26 27 29 35 39 43 52 57 52 51 53 55 53 58 57 59 59 63 61 59 55 52 48 45 43 38 35 32 29 24 21 22 20 21 19
26 27 27 28 30 30 30 31 33 32 33 35 37 41 44 48 51 55 59 60 59 59 66 68 69 71 70 67 63 58 57 53 48 47 42 39 36 34 29 27 28 26 26
43 40 40 39 40 40 41 43 44 41 45 42 43 45 48 45 48 54 60 64 57 62 75 75 80 77 78 75 69 66 64 59 53 55 53 47 44 43 40 36 34 34 31
53 54 53 51 51 51 50 49 51 53 53 51 49 48 50 48 47 44 52 60 61 74 84 83 84 82 83 79 75 72 68 64 66 63 62 58 54 50 49 45 42 40 38
55 54 54 55 55 54 55 57 59 59 60 59 57 54 51 49 48 45 47 62 65 75 88 92 87 84 89 86 79 75 73 72 69 69 69 67 63 61 57 52 49 49 47
53 52 52 54 54 54 54 56 58 61 65 66 64 62 60 57 51 53 57 65 69 73 80 89 95 89 90 89 84 82 78 77 77 76 76 74 72 70 68 61 59 57 54
54 53 53 54 56 56 56 58 59 62 63 64 63 59 58 55 56 55 55 60 71 73 78 79 85 92 90 90 93 86 85 82 81 81 80 80 77 78 76 72 68 64 60
50 51 53 55 57 57 55 55 55 55 54 56 60 61 56 55 57 60 62 63 64 65 71 77 81 84 80 93 95 99 89 88 85 86 83 82 84 82 81 80 77 73 69
44 43 45 48 50 51 52 52 52 50 47 46 48 51 53 57 58 58 61 63 66 67 69 69 71 79 81 81 81 102 105 92 88 85 88 87 86 84 85 85 84 82 79
34 31 31 31 30 31 32 32 35 38 41 43 47 49 50 47 50 54 56 59 62 66 68 73 74 75 75 78 80 77 92 95 89 87 87 88 88 87 87 87 86 85 82
29 25 24 27 27 27 30 29 29 29 34 35 38 41 46 47 48 48 47 51 56 59 65 69 73 75 76 78 77 76 75 75 86 92 91 87 89 89 87 87 88 86 85
25 24 24 27 29 29 29 32 31 30 32 35 39 43 43 42 42 46 51 54 52 56 60 62 68 73 75 76 77 76 71 67 69 71 80 90 91 89 91 90 88 87 85
Wind_Direction_500mb
207 208 210 213 215 213 212 211 210 208 204 198 190 181 173 150 122 105 91 85 83 77 75 66 60 60 56 54 48 47 41 39 39 38 33 30 26 29 31 29 30 33 34
212 213 214 216 218 218 218 217 214 212 211 203 197 191 188 176 146 117 98 91 89 84 78 74 67 65 60 58 52 47 43 43 42 41 38 40 42 36 36 38 37 39 40
214 214 215 217 220 221 221 221 219 218 216 212 204 198 195 188 178 157 128 110 99 94 86 82 72 70 64 63 55 49 49 46 46 48 51 48 45 45 44 41 41 40 41
218 218 219 221 223 223 223 222 222 222 219 218 214 209 204 202 195 193 164 185 113 104 101 89 79 74 61 64 62 58 56 52 57 60 56 53 48 45 41 36 38 39 39
220 221 221 221 224 225 226 226 227 226 225 223 222 221 217 215 215 218 206 216 155 143 123 108 90 77 64 62 65 65 65 62 69 64 56 49 43 40 38 35 36 36 38
223 224 223 224 227 230 231 233 233 232 230 229 228 226 227 228 226 227 225 228 215 215 169 145 125 102 86 71 75 73 73 73 70 61 54 49 46 41 35 32 31 32 35
225 226 227 228 229 231 233 236 237 238 237 236 233 231 231 232 232 234 237 232 226 245 218 179 166 134 109 88 85 84 80 76 67 59 51 43 40 37 37 35 34 39 42
219 222 227 230 230 230 233 236 237 238 240 241 238 235 234 234 237 237 239 235 228 235 234 211 197 184 172 135 109 99 87 77 68 56 48 39 36 30 30 32 35 41 46
213 222 229 233 234 235 237 239 241 241 242 243 242 238 236 236 239 242 241 239 237 236 232 221 220 201 198 197 214 169 132 85 71 55 49 37 34 29 31 35 43 44 47
195 208 221 230 232 234 237 240 243 244 245 244 244 243 239 239 238 241 244 244 242 241 236 233 223 219 209 210 217 232 214 242 354 45 46 37 27 23 26 31 36 40 48
174 192 211 223 230 235 236 238 241 244 246 246 246 244 242 240 241 240 245 245 249 246 243 240 235 227 224 218 219 227 233 236 254 287 348 18 21 20 22 28 32 36 40
152 178 198 212 224 234 240 241 243 245 246 247 248 246 246 244 241 241 243 247 249 245 246 243 242 233 232 228 223 223 233 232 243 254 275 320 351 5 7 20 29 33 33
116 133 166 237 236 238 247 251 251 250 249 249 250 251 248 247 246 245 247 248 248 248 248 243 244 239 236 233 230 227 228 235 236 247 257 274 295 316 332 339 360 19 21
28 10 343 291 284 272 258 258 262 262 262 259 255 255 256 252 248 245 244 251 252 251 247 244 244 247 241 238 235 233 228 232 235 239 248 258 269 281 294 301 315 333 347
326 323 320 313 304 291 285 275 270 269 268 269 268 263 260 257 254 257 252 258 256 259 256 250 246 246 245 241 238 237 235 230 235 237 242 250 257 263 274 280 289 300 312
317 312 307 303 298 294 291 285 282 279 272 270 271 269 266 264 255 248 246 253 250 252 251 250 248 250 250 248 244 241 240 237 234 239 237 244 250 258 261 267 275 280 288
307 301 295 291 291 292 289 286 285 281 280 274 269 269 271 269 259 259 250 248 253 246 248 246 248 247 248 250 248 246 242 242 241 240 241 239 244 250 257 262 265 271 277
288 287 286 287 285 283 283 282 280 280 280 275 271 272 270 268 265 261 256 252 250 240 243 244 244 247 250 249 248 247 247 243 242 240 241 240 240 244 250 257 262 266 268
269 272 275 275 278 281 284 285 286 285 282 282 279 275 271 270 267 259 256 251 249 248 245 247 247 247 250 250 249 248 247 246 245 245 244 244 243 244 245 249 255 260 263
276 278 277 275 276 278 282 284 284 286 288 287 284 282 280 278 267 263 256 253 253 254 255 252 250 248 253 256 254 252 249 247 246 244 245 244 244 245 248 248 250 255 261
275 277 279 280 283 284 283 283 285 284 284 284 284 283 284 282 279 272 264 261 260 261 261 264 263 254 247 252 255 255 252 251 250 248 247 248 247 247 249 250 251 253 256
283 283 283 284 286 287 286 284 284 285 287 286 286 285 283 279 277 278 275 271 267 265 265 267 269 269 266 253 252 253 258 256 254 253 251 249 249 248 250 252 253 253 255
285 291 292 289 287 284 282 281 281 279 285 293 292 289 288 287 285 282 281 280 278 274 272 270 269 270 271 270 258 253 255 257 256 257 256 254 254 254 252 253 254 254 255
285 292 297 300 301 296 291 290 293 291 284 283 288 289 290 288 291 293 293 291 286 282 277 273 271 271 272 273 271 266 259 258 258 260 259 257 256 255 255 255 255 257 257
283 290 301 308 312 320 325 323 315 310 306 303 300 300 298 294 294 295 297 296 294 292 288 284 280 277 273 272 273 272 269 265 258 257 259 258 257 256 254 253 254 255 256
278 292 305 312 314 314 315 319 327 328 319 309 306 304 304 308 310 304 298 295 297 297 297 294 290 286 283 279 276 275 276 274 270 265 262 259 255 253 251 250 251 252 253
Wind_Speed_850mb
29 26 23 19 18 18 18 17 17 15 15 14 12 10 8 7 8 10 12 13 16 18 20 21 23 26 27 30 30 32 34 39 43 42 46 48 53 54 63 68 73 80 82
28 27 25 23 20 19 18 18 17 18 18 17 15 12 10 8 6 7 8 10 14 15 15 19 20 22 23 27 28 31 35 39 41 42 45 49 52 52 63 67 75 81 84
32 30 29 25 22 19 18 18 19 20 20 19 17 15 13 11 9 6 6 4 12 11 14 15 19 19 20 24 26 28 34 36 38 40 43 48 55 57 56 65 73 79 86
35 32 29 25 23 22 21 20 21 22 21 20 19 18 16 14 12 9 7 4 9 8 12 12 17 15 16 21 23 25 30 28 35 37 41 47 51 55 60 62 65 75 80
36 34 29 27 27 26 25 23 24 23 23 23 22 21 18 16 14 11 8 7 5 4 8 10 11 13 13 16 20 23 23 23 30 34 39 43 48 53 61 61 62 57 70
36 34 31 31 30 29 28 27 25 25 25 25 24 23 21 20 19 16 13 11 7 6 6 6 8 8 10 10 15 18 20 21 25 31 38 41 45 50 48 54 58 66 66
30 31 33 32 32 31 31 30 28 27 27 28 27 26 25 24 22 20 19 15 11 11 8 7 5 5 6 7 9 14 14 18 22 27 33 38 44 48 48 45 48 53 57
22 26 30 33 33 33 34 33 32 32 30 29 29 28 29 28 26 25 25 21 17 16 16 11 10 8 5 4 3 8 8 12 17 21 28 33 40 43 46 46 41 44 51
18 19 21 26 30 34 36 34 34 34 33 32 31 31 31 31 30 30 31 27 25 22 21 17 16 14 11 7 5 3 3 3 9 14 22 27 31 32 33 30 37 37 45
14 14 18 21 25 31 33 34 34 35 34 34 35 34 33 35 34 34 34 32 31 28 24 24 23 20 18 14 11 9 6 4 1 6 13 18 22 27 31 34 35 38 40
15 14 14 16 19 23 29 35 36 37 37 39 39 38 39 38 39 38 40 39 35 34 30 27 29 26 24 21 19 16 14 11 9 4 6 11 17 22 23 26 29 31 34
8 7 7 9 12 18 24 30 37 40 42 43 44 44 45 43 43 43 45 42 42 42 37 30 34 32 31 29 26 23 23 20 17 13 10 8 11 14 16 16 18 22 25
9 6 3 3 6 11 17 22 31 38 45 47 50 51 49 48 47 46 46 47 49 50 43 37 40 41 39 39 35 33 31 29 25 22 17 14 10 12 12 15 11 14 17
7 5 2 3 6 11 14 18 24 29 36 44 51 54 54 53 51 51 51 49 55 58 50 50 47 50 48 47 46 44 39 37 34 30 27 23 19 16 16 15 16 14 14
12 15 15 15 16 17 20 22 26 27 29 35 39 43 52 57 52 51 53 55 53 58 57 59 59 63 61 59 55 52 48 45 43 38 35 32 29 24 21 22 20 21 19
26 27 27 28 30 30 30 31 33 32 33 35 37 41 44 48 51 55 59 60 59 59 66 68 69 71 70 67 63 58 57 53 48 47 42 39 36 34 29 27 28 26 26
43 40 40 39 40 40 41 43 44 41 45 42 43 45 48 45 48 54 60 64 57 62 75 75 80 77 78 75 69 66 64 59 53 55 53 47 44 43 40 36 34 34 31
53 54 53 51 51 51 50 49 51 53 53 51 49 48 50 48 47 44 52 60 61 74 84 83 84 82 83 79 75 72 68 64 66 63 62 58 54 50 49 45 42 40 38
55 54 54 55 55 54 55 57 59 59 60 59 57 54 51 49 48 45 47 62 65 75 88 92 87 84 89 86 79 75 73 72 69 69 69 67 63 61 57 52 49 49 47
53 52 52 54 54 54 54 56 58 61 65 66 64 62 60 57 51 53 57 65 69 73 80 89 95 89 90 89 84 82 78 77 77 76 76 74 72 70 68 61 59 57 54
54 53 53 54 56 56 56 58 59 62 63 64 63 59 58 55 56 55 55 60 71 73 78 79 85 92 90 90 93 86 85 82 81 81 80 80 77 78 76 72 68 64 60
50 51 53 55 57 57 55 55 55 55 54 56 60 61 56 55 57 60 62 63 64 65 71 77 81 84 80 93 95 99 89 88 85 86 83 82 84 82 81 80 77 73 69
44 43 45 48 50 51 52 52 52 50 47 46 48 51 53 57 58 58 61 63 66 67 69 69 71 79 81 81 81 102 105 92 88 85 88 87 86 84 85 85 84 82 79
34 31 31 31 30 31 32 32 35 38 41 43 47 49 50 47 50 54 56 59 62 66 68 73 74 75 75 78 80 77 92 95 89 87 87 88 88 87 87 87 86 85 82
29 25 24 27 27 27 30 29 29 29 34 35 38 41 46 47 48 48 47 51 56 59 65 69 73 75 76 78 77 76 75 75 86 92 91 87 89 89 87 87 88 86 85
25 24 24 27 29 29 29 32 31 30 32 35 39 43 43 42 42 46 51 54 52 56 60 62 68 73 75 76 77 76 71 67 69 71 80 90 91 89 91 90 88 87 85
Wind_Direction_850mb
207 208 210 213 215 213 212 211 210 208 204 198 190 181 173 150 122 105 91 85 83 77 75 66 60 60 56 54 48 47 41 39 39 38 33 30 26 29 31 29 30 33 34
212 213 214 216 218 218 218 217 214 212 211 203 197 191 188 176 146 117 98 91 89 84 78 74 67 65 60 58 52 47 43 43 42 41 38 40 42 36 36 38 37 39 40
214 214 215 217 220 221 221 221 219 218 216 212 204 198 195 188 178 157 128 110 99 94 86 82 72 70 64 63 55 49 49 46 46 48 51 48 45 45 44 41 41 40 41
218 218 219 221 223 223 223 222 222 222 219 218 214 209 204 202 195 193 164 185 113 104 101 89 79 74 61 64 62 58 56 52 57 60 56 53 48 45 41 36 38 39 39
220 221 221 221 224 225 226 226 227 226 225 223 222 221 217 215 215 218 206 216 155 143 123 108 90 77 64 62 65 65 65 62 69 64 56 49 43 40 38 35 36 36 38
223 224 223 224 227 230 231 233 233 232 230 229 228 226 227 228 226 227 225 228 215 215 169 145 125 102 86 71 75 73 73 73 70 61 54 49 46 41 35 32 31 32 35
225 226 227 228 229 231 233 236 237 238 237 236 233 231 231 232 232 234 237 232 226 245 218 179 166 134 109 88 85 84 80 76 67 59 51 43 40 37 37 35 34 39 42
219 222 227 230 230 230 233 236 237 238 240 241 238 235 234 234 237 237 239 235 228 235 234 211 197 184 172 135 109 99 87 77 68 56 48 39 36 30 30 32 35 41 46
213 222 229 233 234 235 237 239 241 241 242 243 242 238 236 236 239 242 241 239 237 236 232 221 220 201 198 197 214 169 132 85 71 55 49 37 34 29 31 35 43 44 47
195 208 221 230 232 234 237 240 243 244 245 244 244 243 239 239 238 241 244 244 242 241 236 233 223 219 209 210 217 232 214 242 354 45 46 37 27 23 26 31 36 40 48
174 192 211 223 230 235 236 238 241 244 246 246 246 244 242 240 241 240 245 245 249 246 243 240 235 227 224 218 219 227 233 236 254 287 348 18 21 20 22 28 32 36 40
152 178 198 212 224 234 240 241 243 245 246 247 248 246 246 244 241 241 243 247 249 245 246 243 242 233 232 228 223 223 233 232 243 254 275 320 351 5 7 20 29 33 33
116 133 166 237 236 238 247 251 251 250 249 249 250 251 248 247 246 245 247 248 248 248 248 243 244 239 236 233 230 227 228 235 236 247 257 274 295 316 332 339 360 19 21
28 10 343 291 284 272 258 258 262 262 262 259 255 255 256 252 248 245 244 251 252 251 247 244 244 247 241 238 235 233 228 232 235 239 248 258 269 281 294 301 315 333 347
326 323 320 313 304 291 285 275 270 269 268 269 268 263 260 257 254 257 252 258 256 259 256 250 246 246 245 241 238 237 235 230 235 237 242 250 257 263 274 280 289 300 312
317 312 307 303 298 294 291 285 282 279 272 270 271 269 266 264 255 248 246 253 250 252 251 250 248 250 250 248 244 241 240 237 234 239 237 244 250 258 261 267 275 280 288
307 301 295 291 291 292 289 286 285 281 280 274 269 269 271 269 259 259 250 248 253 246 248 246 248 247 248 250 248 246 242 242 241 240 241 239 244 250 257 262 265 271 277
288 287 286 287 285 283 283 282 280 280 280 275 271 272 270 268 265 261 256 252 250 240 243 244 244 247 250 249 248 247 247 243 242 240 241 240 240 244 250 257 262 266 268
269 272 275 275 278 281 284 285 286 285 282 282 279 275 271 270 267 259 256 251 249 248 245 247 247 247 250 250 249 248 247 246 245 245 244 244 243 244 245 249 255 260 263
276 278 277 275 276 278 282 284 284 286 288 287 284 282 280 278 267 263 256 253 253 254 255 252 250 248 253 256 254 252 249 247 246 244 245 244 244 245 248 248 250 255 261
275 277 279 280 283 284 283 283 285 284 284 284 284 283 284 282 279 272 264 261 260 261 261 264 263 254 247 252 255 255 252 251 250 248 247 248 247 247 249 250 251 253 256
283 283 283 284 286 287 286 284 284 285 287 286 286 285 283 279 277 278 275 271 267 265 265 267 269 269 266 253 252 253 258 256 254 253 251 249 249 248 250 252 253 253 255
285 291 292 289 287 284 282 281 281 279 285 293 292 289 288 287 285 282 281 280 278 274 272 270 269 270 271 270 258 253 255 257 256 257 256 254 254 254 252 253 254 254 255
285 292 297 300 301 296 291 290 293 291 284 283 288 289 290 288 291 293 293 291 286 282 277 273 271 271 272 273 271 266 259 258 258 260 259 257 256 255 255 255 255 257 257
283 290 301 308 312 320 325 323 315 310 306 303 300 300 298 294 294 295 297 296 294 292 288 284 280 277 273 272 273 272 269 265 258 257 259 258 257 256 254 253 254 255 256
278 292 305 312 314 314 315 319 327 328 319 309 306 304 304 308 310 304 298 295 297 297 297 294 290 286 283 279 276 275 276 274 270 265 262 259 255 253 251 250 251 252 253